Regional Weather Roundup
Issued by NWS

Home | Current Version | Previous Version | Text Only | Print | Product List | Glossary On
Versions: 1 2 3 4 5 6 7 8 9 10 11 12 13 14 15 16 17 18 19 20 21 22 23 24 25 26 27 28 29 30 31 32 33 34 35 36 37 38 39 40 41 42 43 44 45 46 47 48 49 50
000
ASUS44 KOUN 291700
RWROK

WEATHER ROUNDUP FOR OKLAHOMA
NATIONAL WEATHER SERVICE NORMAN OK
1200 PM CDT SAT AUG 29 2015

NOTE: "FAIR" INDICATES FEW OR NO CLOUDS BELOW 12,000 FEET WITH NO
      SIGNIFICANT WEATHER AND/OR OBSTRUCTIONS TO VISIBILITY.

OKZ001>007-009>012-014-015-017-291800-
NORTHWEST OKLAHOMA AND THE PANHANDLE

CITY           SKY/WX    TMP DP  RH WIND       PRES   REMARKS
GAGE           SUNNY     82  61  48 NE16      30.12S
GUYMON         SUNNY     81  63  54 VRB3      30.18R
$$

OKZ016-021>023-033>039-044-045-291800-
SOUTHWEST OKLAHOMA

CITY           SKY/WX    TMP DP  RH WIND       PRES   REMARKS
LAWTON/REGL    PTSUNNY   85  61  44 E6        30.01S
LAWTON/FT SILL PTSUNNY   86  66  51 E5        30.00S
FREDERICK      CLOUDY    85  64  49 N5        29.99S
CLINTON        MOSUNNY   86  66  51 NE16      30.09S
HOBART         PTSUNNY   88  67  49 N16       30.05R HX  91
ALTUS AFB      CLOUDY    89  62  39 N10       30.02S
$$

OKZ018>020-024>031-291800-
CENTRAL OKLAHOMA

CITY           SKY/WX    TMP DP  RH WIND       PRES   REMARKS
OKLAHOMA CITY  PTSUNNY   86  69  56 N12       30.03S HX  90
OKC/WILEY POST MOSUNNY   86  69  56 N12       30.03F HX  90
OKC/TINKER AFB MOSUNNY   85  68  57 NW7       30.02S
STILLWATER     MOSUNNY   82  67  60 N9G18     30.03R
GUTHRIE        SUNNY     86  65  49 N9        30.03S
$$

OKZ008-013-054>072-291800-
NORTHEAST OKLAHOMA

CITY           SKY/WX    TMP DP  RH WIND       PRES   REMARKS
TULSA          PTSUNNY   84  71  65 VRB6      29.99S
TULSA/JONES    SUNNY     85  70  60 MISG      30.00R
PONCA CITY     SUNNY     80  64  58 N9        30.03S
BARTLESVILLE   MOSUNNY   80  69  69 NE9       30.03R
MUSKOGEE       SUNNY     85  67  54 SW9       30.01R
$$

OKZ032-040>043-046>053-073>077-291800-
SOUTH CENTRAL/SOUTHEAST OKLAHOMA

CITY           SKY/WX    TMP DP  RH WIND       PRES   REMARKS
MCALESTER      PTSUNNY   86  69  56 S8        30.01F HX  90
$$



USA.gov is the U.S. government's official web portal to all federal, state and local government web resources and services.